AV636 Weather Reports


Display with metric or nautical units.
time (UTC)temp
F
wind
direction
speed
MPH
gust
MPH
rain 1hr
in
rain 24hr
in
rain mn
in
humidity
%
barometer
mb
20260906191836 100 225 6.0 7.0 0.00 0.00 0.00 42 1013.8
20260906190816 99 203 4.0 6.0 0.00 0.00 0.00 40 1014.0
20260906185815 100 180 3.0 5.0 0.00 0.00 0.00 41 1014.3
20260906184815 100 180 6.0 9.0 0.00 0.00 0.00 40 1014.5
20260906183815 99 135 5.0 7.0 0.00 0.00 0.00 43 1014.6
20260906182816 99 135 3.0 5.0 0.00 0.00 0.00 42 1014.8
20260906181836 99 180 7.0 10.0 0.00 0.00 0.00 42 1015.1
20260906180815 98 0.0 1.0 0.00 0.00 0.00 43 1015.0
20260906175816 97 0.0 1.0 0.00 0.00 0.00 44 1015.4
20260906174856 97 158 2.0 4.0 0.00 0.00 0.00 44 1015.6
20260906173815 97 203 5.0 7.0 0.00 0.00 0.00 45 1015.8
20260906172856 98 225 3.0 5.0 0.00 0.00 0.00 45 1016.1
20260906171815 97 135 2.0 5.0 0.00 0.00 0.00 45 1016.1
20260906170856 97 293 3.0 5.0 0.00 0.00 0.00 45 1016.3
20260906165815 96 0.0 0.0 0.00 0.00 0.00 46 1016.3
20260906164816 95 270 6.0 7.0 0.00 0.00 0.00 46 1016.4
20260906163816 95 0.0 1.0 0.00 0.00 0.00 47 1016.6
20260906162815 95 270 5.0 7.0 0.00 0.00 0.00 49 1016.7
20260906161815 94 270 3.0 4.0 0.00 0.00 0.00 49 1016.8
20260906160815 94 315 6.0 9.0 0.00 0.00 0.00 49 1016.6
20260906155815 94 0 3.0 4.0 0.00 0.00 0.00 51 1016.6
20260906154815 92 225 3.0 5.0 0.00 0.00 0.00 52 1016.4
20260906153856 92 293 3.0 5.0 0.00 0.00 0.00 53 1016.4
20260906152815 92 0.0 0.0 0.00 0.00 0.00 53 1016.3
20260906151816 90 0.0 1.0 0.00 0.00 0.00 57 1016.3
20260906150815 89 225 1.0 2.0 0.00 0.00 0.00 57 1016.2
20260906145815 88 0.0 1.0 0.00 0.00 0.00 60 1016.2
20260906144835 86 203 1.0 2.0 0.00 0.00 0.00 61 1016.1
20260906143815 85 225 3.0 4.0 0.00 0.00 0.00 62 1016.1
20260906142815 85 0.0 0.0 0.00 0.00 0.00 64 1016.0
20260906141815 84 158 3.0 4.0 0.00 0.00 0.00 64 1016.0
20260906140815 83 135 2.0 2.0 0.00 0.00 0.00 66 1015.9
20260906135815 82 0.0 1.0 0.00 0.00 0.00 68 1015.9
20260906134815 81 113 3.0 3.0 0.00 0.00 0.00 69 1015.8
20260906133815 79 90 4.0 4.0 0.00 0.00 0.00 71 1015.9
20260906132815 77 90 3.0 4.0 0.00 0.00 0.00 73 1015.6
20260906131815 75 90 2.0 3.0 0.00 0.00 0.00 74 1015.4
20260906130815 73 0.0 0.0 0.00 0.00 0.00 78 1015.3
20260906125835 72 0.0 0.0 0.00 0.00 0.00 79 1015.3
20260906124815 71 338 2.0 3.0 0.00 0.00 0.00 80 1015.0
20260906123815 70 0.0 0.0 0.00 0.00 0.00 80 1015.0
20260906122815 69 0.0 0.0 0.00 0.00 0.00 80 1014.7
20260906121815 69 0.0 0.0 0.00 0.00 0.00 80 1014.5
20260906120835 69 0.0 0.0 0.00 0.00 0.00 80 1014.3
20260906115817 69 0.0 0.0 0.00 0.00 0.00 80 1014.1
20260906114817 69 0.0 0.0 0.00 0.00 0.00 80 1014.1
20260906113817 69 0.0 0.0 0.00 0.00 0.00 80 1014.1
20260906112817 69 0.0 0.0 0.00 0.00 0.00 80 1013.9
20260906111817 70 0.0 0.0 0.00 0.00 0.00 80 1013.8
20260906110817 70 0.0 0.0 0.00 0.00 0.00 79 1014.0
20260906105817 70 0.0 0.0 0.00 0.00 0.00 79 1014.0
20260906104837 70 0.0 0.0 0.00 0.00 0.00 80 1014.1
20260906103817 70 0.0 0.0 0.00 0.00 0.00 80 1014.2
20260906102837 70 0.0 0.0 0.00 0.00 0.00 79 1014.1
20260906101837 70 0.0 0.0 0.00 0.00 0.00 79 1014.1
20260906100817 70 0.0 0.0 0.00 0.00 0.00 79 1014.1
20260906095817 71 0.0 0.0 0.00 0.00 0.00 80 1014.1
20260906094817 71 0.0 0.0 0.00 0.00 0.00 79 1014.1
20260906093837 71 113 1.0 2.0 0.00 0.00 0.00 79 1014.1
20260906092817 71 113 2.0 3.0 0.00 0.00 0.00 78 1013.9
20260906091817 72 68 2.0 3.0 0.00 0.00 0.00 78 1013.9
20260906090817 72 68 2.0 3.0 0.00 0.00 0.00 78 1013.8
20260906085917 72 0.0 0.0 0.00 0.00 0.00 77 1013.9
20260906084817 73 68 3.0 3.0 0.00 0.00 0.00 77 1013.8
20260906083816 73 68 2.0 3.0 0.00 0.00 0.00 77 1013.8
20260906082816 73 0.0 0.0 0.00 0.00 0.00 77 1014.0
20260906081816 73 0.0 0.0 0.00 0.00 0.00 77 1013.9
20260906080816 73 0.0 0.0 0.00 0.00 0.00 76 1013.9
20260906075816 73 0.0 0.0 0.00 0.00 0.00 76 1013.9
20260906074816 74 0.0 0.0 0.00 0.00 0.00 75 1013.9
20260906073817 75 0.0 1.0 0.00 0.00 0.00 74 1013.9
20260906072816 75 113 2.0 2.0 0.00 0.00 0.00 73 1013.9
20260906071816 75 113 3.0 3.0 0.00 0.00 0.00 73 1013.6
20260906070816 76 0.0 0.0 0.00 0.00 0.00 72 1013.6
20260906065817 76 0.0 0.0 0.00 0.00 0.00 72 1013.7
20260906064817 77 0.0 0.0 0.00 0.00 0.00 71 1013.9
20260906063836 78 0.0 0.0 0.00 0.00 0.00 70 1013.8
20260906062817 79 158 2.0 4.0 0.00 0.00 0.00 68 1013.8
20260906061816 79 113 4.0 6.0 0.00 0.00 0.00 67 1013.9
20260906060816 79 113 4.0 6.0 0.00 0.00 0.00 67 1014.0
20260906055816 79 113 3.0 4.0 0.00 0.00 0.00 67 1014.0
20260906054816 80 113 4.0 6.0 0.00 0.00 0.00 66 1014.0
20260906053816 80 113 3.0 4.0 0.00 0.00 0.00 66 1014.0
20260906052837 80 113 2.0 3.0 0.00 0.00 0.00 65 1013.9
20260906051816 81 135 4.0 4.0 0.00 0.00 0.00 65 1014.0
20260906050816 81 113 4.0 4.0 0.00 0.00 0.00 65 1013.9
20260906045815 81 135 4.0 5.0 0.00 0.00 0.00 65 1014.1
20260906044816 81 113 4.0 4.0 0.00 0.00 0.00 65 1013.9
20260906043815 81 113 3.0 4.0 0.00 0.00 0.00 65 1013.9
20260906042815 82 113 3.0 4.0 0.00 0.00 0.00 64 1013.9
20260906041815 83 135 3.0 4.0 0.00 0.00 0.00 63 1013.9
20260906040835 83 135 4.0 4.0 0.00 0.00 0.00 62 1014.0
20260906035815 83 135 4.0 5.0 0.00 0.00 0.00 62 1014.0
20260906034855 83 113 3.0 4.0 0.00 0.00 0.00 62 1013.8
20260906033815 83 113 5.0 6.0 0.00 0.00 0.00 62 1013.4
20260906032815 82 135 3.0 4.0 0.00 0.00 0.00 63 1013.2
20260906031816 82 158 2.0 3.0 0.00 0.00 0.00 65 1013.1
20260906030815 82 180 4.0 5.0 0.00 0.00 0.00 64 1012.9
20260906025815 83 135 3.0 4.0 0.00 0.00 0.00 62 1012.8
20260906024816 83 135 5.0 5.0 0.00 0.00 0.00 64 1012.9
20260906023815 84 135 2.0 3.0 0.00 0.00 0.00 61 1012.9
20260906022815 84 135 2.0 3.0 0.00 0.00 0.00 60 1012.6
20260906021835 85 135 2.0 3.0 0.00 0.00 0.00 58 1012.4
20260906020815 85 135 2.0 3.0 0.00 0.00 0.00 58 1012.4
20260906015856 85 180 3.0 4.0 0.00 0.00 0.00 60 1012.1
20260906014815 86 158 3.0 4.0 0.00 0.00 0.00 58 1012.0
20260906013815 87 180 1.0 2.0 0.00 0.00 0.00 56 1011.8
20260906012815 88 180 2.0 3.0 0.00 0.00 0.00 54 1011.9
20260906011835 89 180 2.0 2.0 0.00 0.00 0.00 52 1011.7
20260906010815 90 135 3.0 3.0 0.00 0.00 0.00 51 1011.7
20260906005815 91 158 2.0 3.0 0.00 0.00 0.00 50 1011.6
20260906004835 91 135 3.0 4.0 0.00 0.00 0.00 49 1011.6
20260906003815 92 158 2.0 3.0 0.00 0.00 0.00 48 1011.5
20260906002815 93 180 2.0 4.0 0.00 0.00 0.00 48 1011.6
20260906001815 94 203 3.0 4.0 0.00 0.00 0.00 47 1011.6
20260906000835 95 180 2.0 3.0 0.00 0.00 0.00 47 1011.7
20260905235815 95 180 3.0 4.0 0.00 0.00 0.00 45 1011.6
20260905234815 96 180 2.0 4.0 0.00 0.00 0.00 45 1011.7
20260905233815 97 135 7.0 9.0 0.00 0.00 0.00 42 1011.7
20260905232815 98 158 4.0 6.0 0.00 0.00 0.00 41 1011.8
20260905231835 99 203 6.0 8.0 0.00 0.00 0.00 41 1011.7
20260905230817 100 158 5.0 7.0 0.00 0.00 0.00 39 1011.9
20260905225817 100 180 4.0 6.0 0.00 0.00 0.00 39 1012.0
20260905224817 101 135 8.0 11.0 0.00 0.00 0.00 38 1011.9
20260905223817 100 113 6.0 9.0 0.00 0.00 0.00 39 1011.9
20260905222817 100 135 2.0 3.0 0.00 0.00 0.00 38 1011.9
20260905221817 101 135 2.0 4.0 0.00 0.00 0.00 38 1012.0
20260905220817 101 113 7.0 11.0 0.00 0.00 0.00 40 1011.9
20260905215817 101 113 5.0 9.0 0.00 0.00 0.00 40 1012.0
20260905214817 101 180 6.0 11.0 0.00 0.00 0.00 40 1012.0
20260905213817 101 225 3.0 4.0 0.00 0.00 0.00 40 1011.9
20260905212837 101 113 5.0 8.0 0.00 0.00 0.00 40 1011.9
20260905211817 101 158 8.0 10.0 0.00 0.00 0.00 40 1012.1
20260905210817 100 180 9.0 12.0 0.00 0.00 0.00 41 1012.2
20260905205817 100 113 10.0 13.0 0.00 0.00 0.00 41 1012.3
20260905204817 100 135 3.0 5.0 0.00 0.00 0.00 42 1012.4
20260905203817 100 113 8.0 10.0 0.00 0.00 0.00 41 1012.5
20260905202817 100 90 7.0 10.0 0.00 0.00 0.00 42 1012.8
20260905201817 99 113 4.0 10.0 0.00 0.00 0.00 43 1013.0
20260905200817 99 135 7.0 10.0 0.00 0.00 0.00 44 1013.1
20260905195817 99 135 10.0 12.0 0.00 0.00 0.00 45 1013.3
20260905194857 100 135 6.0 9.0 0.00 0.00 0.00 43 1013.5
20260905193816 100 135 7.0 13.0 0.00 0.00 0.00 44 1013.4
20260905192837 99 203 9.0 11.0 0.00 0.00 0.00 45 1013.6